Precipitable_Water
0.86 0.80 0.74 0.67 0.64 0.63 0.60 0.57 0.57 0.53 0.52 0.51 0.49 0.48 0.46 0.46 0.49 0.49 0.49 0.47 0.47 0.48 0.48 0.48 0.48 0.49 0.49 0.47 0.43 0.39 0.38 0.36 0.35 0.36 0.40 0.42 0.42 0.41 0.39 0.38 0.38 0.37
0.89 0.85 0.80 0.71 0.71 0.72 0.68 0.64 0.62 0.59 0.56 0.54 0.54 0.53 0.53 0.51 0.52 0.52 0.51 0.49 0.48 0.47 0.49 0.50 0.52 0.52 0.52 0.50 0.48 0.43 0.41 0.41 0.38 0.39 0.35 0.38 0.39 0.39 0.37 0.36 0.33 0.34
0.89 0.87 0.79 0.72 0.71 0.73 0.73 0.72 0.70 0.68 0.67 0.66 0.63 0.60 0.56 0.55 0.54 0.55 0.54 0.52 0.50 0.49 0.50 0.51 0.54 0.55 0.55 0.53 0.52 0.49 0.46 0.46 0.45 0.45 0.41 0.39 0.41 0.39 0.38 0.37 0.34 0.32
0.87 0.88 0.82 0.78 0.79 0.77 0.79 0.78 0.75 0.73 0.73 0.70 0.69 0.69 0.67 0.63 0.60 0.58 0.57 0.56 0.53 0.52 0.51 0.50 0.52 0.55 0.56 0.56 0.55 0.53 0.52 0.52 0.52 0.52 0.47 0.45 0.44 0.43 0.42 0.40 0.37 0.35
0.86 0.88 0.88 0.83 0.85 0.85 0.82 0.81 0.81 0.79 0.76 0.75 0.74 0.74 0.72 0.70 0.67 0.65 0.62 0.60 0.60 0.58 0.57 0.54 0.55 0.56 0.57 0.56 0.57 0.55 0.57 0.55 0.56 0.54 0.50 0.47 0.47 0.45 0.44 0.45 0.42 0.39
0.90 0.90 0.90 0.89 0.90 0.88 0.85 0.84 0.84 0.84 0.83 0.81 0.80 0.82 0.79 0.77 0.75 0.73 0.70 0.67 0.66 0.65 0.64 0.63 0.62 0.62 0.62 0.61 0.60 0.59 0.59 0.58 0.58 0.57 0.53 0.52 0.51 0.52 0.49 0.47 0.45 0.43
0.87 0.86 0.86 0.91 0.92 0.90 0.86 0.87 0.89 0.90 0.88 0.86 0.87 0.85 0.86 0.86 0.86 0.86 0.86 0.83 0.78 0.75 0.72 0.71 0.71 0.70 0.70 0.68 0.66 0.64 0.63 0.63 0.62 0.60 0.56 0.57 0.58 0.57 0.57 0.54 0.51 0.49
0.88 0.88 0.90 0.91 0.95 0.92 0.87 0.89 0.92 0.92 0.93 0.92 0.91 0.92 0.93 0.90 0.89 0.90 0.91 0.92 0.89 0.87 0.86 0.86 0.86 0.84 0.84 0.81 0.76 0.73 0.71 0.72 0.71 0.68 0.63 0.60 0.60 0.60 0.61 0.62 0.59 0.56
0.94 0.91 0.91 0.96 0.94 0.92 0.92 0.96 1.00 1.00 1.01 0.97 0.94 0.96 1.01 0.99 0.97 0.95 0.94 0.94 0.93 0.93 0.92 0.91 0.91 0.90 0.90 0.88 0.87 0.84 0.81 0.79 0.79 0.76 0.71 0.67 0.64 0.62 0.61 0.62 0.61 0.60
0.94 0.93 0.96 0.97 0.97 0.96 0.98 1.01 1.03 1.04 1.04 1.06 1.06 1.04 1.01 1.03 1.03 1.02 0.99 0.97 0.96 0.96 0.96 0.95 0.95 0.93 0.91 0.90 0.90 0.90 0.89 0.87 0.87 0.86 0.81 0.76 0.73 0.72 0.71 0.70 0.67 0.64
0.90 0.89 0.88 0.91 0.92 0.94 0.94 0.93 0.98 1.05 1.07 1.08 1.11 1.09 1.06 1.05 1.05 1.03 1.00 0.99 0.96 0.94 0.96 0.97 0.98 0.98 0.94 0.93 0.94 0.94 0.92 0.90 0.90 0.90 0.89 0.87 0.85 0.83 0.82 0.81 0.79 0.76
0.95 0.93 0.91 0.91 0.91 0.92 0.94 0.89 0.87 0.94 1.02 1.10 1.11 1.09 1.07 1.04 0.99 1.00 1.02 1.01 1.02 1.01 1.00 1.00 1.01 1.01 0.99 0.97 0.97 0.97 0.96 0.93 0.92 0.91 0.91 0.90 0.89 0.88 0.87 0.86 0.85 0.84
0.93 0.93 0.90 0.88 0.89 0.92 0.96 0.94 0.92 0.95 0.99 1.02 1.05 1.05 1.03 1.01 0.99 0.98 0.99 1.00 1.02 1.04 1.02 1.01 1.02 1.03 1.03 1.02 1.01 0.99 0.96 0.94 0.93 0.92 0.91 0.90 0.90 0.89 0.87 0.86 0.85 0.84
0.94 0.94 0.93 0.93 0.93 0.92 0.92 0.97 0.98 0.99 1.00 1.01 1.02 1.00 1.00 1.00 0.99 0.98 1.00 1.01 1.01 1.00 1.01 1.03 1.03 1.05 1.06 1.05 1.02 0.99 0.96 0.97 0.97 0.95 0.94 0.92 0.91 0.89 0.87 0.87 0.86 0.85
0.86 0.87 0.87 0.87 0.91 0.94 0.95 0.96 0.97 0.96 0.96 0.95 0.96 0.95 0.96 0.98 1.00 1.02 1.02 1.01 1.01 1.00 1.00 1.02 1.01 1.01 1.01 0.99 0.96 0.95 0.95 0.94 0.96 0.95 0.94 0.93 0.94 0.92 0.91 0.89 0.88 0.87
0.62 0.63 0.65 0.63 0.63 0.64 0.68 0.73 0.78 0.81 0.81 0.80 0.80 0.82 0.85 0.88 0.90 0.92 0.93 0.94 0.96 0.97 0.98 0.99 1.00 1.02 1.03 1.00 0.99 0.97 0.97 0.97 0.96 0.94 0.92 0.89 0.87 0.86 0.87 0.89 0.88 0.86
0.60 0.65 0.65 0.63 0.64 0.65 0.66 0.65 0.67 0.70 0.71 0.71 0.73 0.76 0.78 0.79 0.80 0.79 0.81 0.83 0.84 0.86 0.89 0.94 0.97 0.99 0.98 0.96 0.96 0.97 0.97 0.96 0.94 0.92 0.91 0.89 0.86 0.82 0.80 0.81 0.84 0.85
0.48 0.49 0.52 0.55 0.58 0.58 0.58 0.61 0.64 0.66 0.66 0.67 0.66 0.66 0.69 0.74 0.75 0.75 0.78 0.81 0.81 0.82 0.81 0.83 0.88 0.94 0.95 0.95 0.96 0.97 0.97 0.96 0.94 0.92 0.91 0.90 0.86 0.83 0.82 0.81 0.81 0.82
0.47 0.47 0.48 0.49 0.50 0.51 0.52 0.52 0.52 0.52 0.52 0.53 0.54 0.58 0.61 0.61 0.63 0.66 0.70 0.76 0.79 0.79 0.78 0.78 0.75 0.76 0.78 0.82 0.85 0.87 0.89 0.90 0.90 0.90 0.88 0.85 0.86 0.86 0.83 0.81 0.77 0.77
0.44 0.44 0.44 0.46 0.48 0.48 0.47 0.47 0.47 0.47 0.49 0.51 0.52 0.53 0.54 0.56 0.59 0.60 0.63 0.66 0.72 0.77 0.78 0.75 0.69 0.69 0.70 0.71 0.73 0.75 0.77 0.78 0.79 0.80 0.80 0.78 0.78 0.80 0.81 0.79 0.77 0.76
0.43 0.41 0.40 0.39 0.39 0.38 0.38 0.38 0.40 0.40 0.40 0.42 0.42 0.42 0.43 0.45 0.47 0.49 0.53 0.59 0.62 0.66 0.70 0.72 0.70 0.67 0.66 0.68 0.70 0.70 0.71 0.72 0.72 0.73 0.72 0.72 0.73 0.74 0.74 0.72 0.70 0.70
0.46 0.44 0.44 0.44 0.44 0.43 0.41 0.40 0.39 0.38 0.37 0.39 0.40 0.41 0.42 0.41 0.41 0.41 0.43 0.47 0.53 0.57 0.59 0.59 0.61 0.62 0.63 0.64 0.67 0.68 0.68 0.68 0.68 0.69 0.71 0.73 0.74 0.72 0.70 0.69 0.70 0.71
0.48 0.47 0.47 0.46 0.46 0.45 0.44 0.43 0.42 0.43 0.44 0.46 0.43 0.43 0.41 0.40 0.38 0.39 0.41 0.41 0.44 0.50 0.54 0.56 0.57 0.58 0.59 0.61 0.63 0.64 0.63 0.64 0.65 0.66 0.66 0.65 0.66 0.67 0.68 0.67 0.67 0.66
0.50 0.50 0.49 0.50 0.50 0.47 0.47 0.47 0.48 0.50 0.48 0.50 0.46 0.45 0.43 0.43 0.42 0.41 0.42 0.43 0.45 0.47 0.49 0.51 0.53 0.56 0.57 0.58 0.59 0.60 0.61 0.60 0.60 0.60 0.60 0.60 0.60 0.60 0.60 0.61 0.62 0.61
0.47 0.47 0.47 0.47 0.48 0.49 0.49 0.50 0.51 0.52 0.53 0.53 0.51 0.49 0.47 0.46 0.45 0.43 0.43 0.45 0.46 0.49 0.51 0.51 0.52 0.53 0.55 0.56 0.57 0.58 0.58 0.57 0.56 0.53 0.50 0.50 0.50 0.51 0.52 0.53 0.53 0.53
0.47 0.46 0.47 0.48 0.48 0.50 0.51 0.51 0.53 0.53 0.52 0.51 0.50 0.49 0.46 0.45 0.44 0.45 0.45 0.46 0.49 0.51 0.51 0.51 0.52 0.52 0.53 0.54 0.54 0.55 0.54 0.53 0.52 0.50 0.45 0.42 0.43 0.45 0.47 0.48 0.48 0.48
Wind_Speed
15 14 13 13 12 11 10 10 9 8 7 6 5 5 5 5 4 4 3 3 3 3 3 3 2 2 3 2 2 2 2 2 2 3 3 3 3 4 4 4 5 5
17 15 14 14 13 12 12 11 10 9 9 7 6 6 6 5 5 5 4 4 4 4 4 4 3 3 3 3 3 3 3 2 2 3 3 3 3 3 3 3 3 4
18 17 15 15 14 13 13 12 11 11 10 9 8 7 7 6 6 6 6 5 5 5 5 5 5 4 4 4 4 4 4 3 3 3 3 3 3 3 3 3 3 3
19 18 16 15 14 14 13 13 12 12 11 10 10 9 8 8 7 7 7 7 7 7 6 6 6 6 5 5 5 5 5 4 4 4 4 4 4 4 4 4 4 4
18 18 17 16 15 14 14 14 13 12 12 12 11 10 10 9 9 9 9 9 8 8 8 8 8 7 7 7 7 6 6 6 6 5 5 5 5 5 5 5 5 5
17 17 18 17 16 15 15 15 14 14 13 13 12 12 11 11 10 10 10 10 10 10 10 9 9 9 9 8 8 8 8 8 8 7 7 6 6 6 6 6 6 6
17 17 18 18 17 16 16 15 15 15 14 14 13 13 13 12 12 11 11 11 11 10 10 10 10 10 10 10 10 10 9 9 9 9 9 8 8 8 7 7 7 7
17 17 17 18 19 18 18 17 16 16 16 15 15 14 13 13 12 12 12 11 11 11 11 11 11 11 11 11 11 11 11 11 11 11 11 11 10 10 9 9 9 9
16 16 16 17 18 19 19 19 18 18 17 16 16 16 15 15 15 14 14 14 13 13 13 13 13 12 12 12 12 12 12 12 12 12 12 12 12 12 12 11 11 11
16 16 17 17 18 19 19 19 20 20 19 17 17 18 17 17 16 16 16 17 17 16 16 16 15 14 14 14 14 14 14 13 13 13 13 13 13 13 13 13 12 12
15 16 17 17 18 19 19 19 19 19 19 18 18 18 18 17 17 17 17 18 19 19 19 18 18 17 16 16 17 16 16 15 15 15 14 14 14 14 14 14 14 14
16 17 17 18 19 19 19 19 19 19 20 19 19 18 18 18 18 18 18 19 19 20 20 20 20 19 18 18 18 18 18 17 17 17 17 16 16 16 16 16 15 15
17 17 18 19 19 20 20 21 21 21 21 21 20 20 20 20 20 20 19 19 19 19 20 21 21 21 20 20 20 20 20 20 19 19 18 18 18 17 17 17 17 17
16 17 18 18 19 20 20 21 22 22 22 22 22 22 22 21 21 21 20 20 20 20 20 21 22 22 21 21 21 20 21 21 21 20 20 20 20 19 19 19 19 18
15 16 16 17 18 18 19 20 20 21 21 22 22 22 22 22 21 21 21 21 21 22 22 22 23 23 23 22 22 21 21 21 22 21 21 21 21 22 22 21 21 21
16 16 16 16 17 17 18 18 19 19 19 20 20 21 21 22 21 21 21 21 22 22 22 23 23 23 23 23 23 23 23 23 23 23 23 23 23 24 24 24 24 24
17 18 18 18 18 19 19 19 20 20 20 21 21 22 22 23 23 23 23 22 22 22 22 23 23 23 24 24 25 25 25 25 25 25 25 25 25 26 26 26 27 27
18 18 18 19 19 19 19 19 20 20 21 22 22 23 23 24 24 25 25 24 24 24 24 24 24 24 25 25 26 27 27 27 27 27 28 28 28 28 28 28 28 28
20 20 20 20 20 20 20 20 20 21 21 22 23 23 23 24 24 25 25 25 26 26 26 25 25 26 26 27 28 28 28 28 28 29 29 29 30 30 30 29 29 29
21 22 22 22 22 22 22 22 22 23 23 23 24 24 24 25 25 25 26 26 26 27 26 26 26 27 27 28 29 29 29 29 29 29 29 30 30 30 30 30 30 30
23 23 23 23 23 23 23 24 24 24 24 25 25 25 25 25 26 26 26 26 26 26 26 27 27 28 28 28 28 29 29 29 29 29 29 29 29 29 29 30 30 30
23 23 23 24 24 24 24 24 24 25 25 25 25 25 26 26 26 26 26 25 25 26 26 26 27 27 27 28 28 28 28 28 28 28 28 28 27 28 28 29 30 30
24 24 24 24 24 24 25 25 25 26 25 25 25 25 26 26 26 26 26 25 25 26 26 26 26 27 27 27 27 27 28 28 28 27 27 27 27 27 28 29 30 30
25 25 26 26 26 26 26 27 27 26 26 26 26 26 26 26 26 26 26 26 25 25 26 26 26 26 26 26 26 26 27 27 27 26 26 27 27 28 28 29 30 30
28 28 28 28 28 28 28 28 28 28 28 27 27 27 27 27 27 27 27 27 26 26 26 26 26 26 26 25 25 25 26 26 26 26 26 27 27 28 28 29 29 30
29 29 29 29 29 29 29 29 29 28 28 28 28 28 28 27 27 27 27 27 27 28 27 27 27 26 26 25 25 25 25 25 26 26 26 27 27 28 28 28 29 30
Wind_Direction
247 248 248 249 250 251 249 248 247 248 252 255 257 256 248 243 241 238 238 236 235 238 237 238 238 238 244 253 261 262 259 255 252 250 246 244 247 246 246 249 247 243
244 246 248 247 247 249 248 244 242 244 248 252 255 254 249 245 242 240 242 243 243 242 240 243 245 244 244 249 258 259 257 256 257 257 249 242 245 243 239 243 242 240
242 245 247 246 244 245 245 243 241 243 247 250 252 251 249 247 245 244 245 247 249 248 246 246 247 249 250 252 257 257 252 250 250 253 252 247 246 245 242 242 242 241
241 244 246 245 243 243 243 242 240 242 246 249 251 252 251 249 248 248 248 249 250 251 252 251 250 252 255 258 261 260 257 253 250 249 251 251 248 246 247 248 248 247
238 240 241 242 242 241 241 239 238 240 244 247 250 252 252 251 251 251 251 251 252 253 254 255 256 255 257 260 262 262 260 258 256 252 250 249 247 248 249 248 249 249
236 238 238 239 240 240 239 237 237 240 243 247 249 251 252 253 253 253 253 255 256 256 257 257 259 258 258 259 260 261 261 259 258 255 252 250 249 250 250 247 248 250
239 239 239 239 238 237 237 237 238 241 244 248 250 250 252 253 254 255 255 258 259 258 259 259 259 260 259 259 258 258 259 259 258 256 254 253 252 252 252 250 250 250
237 238 240 240 236 235 237 239 242 245 246 247 248 248 250 251 253 256 257 257 258 259 260 260 261 262 262 262 260 259 259 259 258 257 256 254 253 253 253 253 253 253
233 237 238 238 236 237 240 243 246 247 246 246 248 247 248 251 254 257 257 256 257 259 260 261 262 264 264 263 261 260 260 260 259 259 258 256 255 254 255 256 256 257
232 236 237 238 239 241 244 247 250 248 245 248 252 248 247 251 255 258 257 256 257 257 259 260 261 262 263 263 261 260 260 259 258 258 258 258 258 258 257 257 258 258
235 238 239 241 244 246 247 251 253 249 247 251 254 250 248 250 256 261 260 258 256 255 256 258 259 259 260 261 261 261 260 259 257 257 257 259 260 260 259 259 258 258
243 246 247 248 249 250 251 252 254 252 252 255 255 255 254 253 258 263 263 260 259 256 255 256 257 257 258 259 260 260 259 259 258 257 257 257 258 258 258 258 257 257
250 252 253 254 254 255 254 255 255 255 256 256 257 259 260 259 261 263 262 261 261 259 257 256 256 257 257 257 258 258 258 259 259 259 258 257 257 257 256 256 256 255
254 255 256 257 258 258 257 257 258 258 257 258 259 260 262 263 264 264 263 262 262 261 260 258 257 258 258 257 257 258 258 258 258 259 259 258 257 257 257 256 255 256
257 257 258 259 259 260 259 259 260 260 260 260 261 261 263 264 265 264 264 263 263 263 262 261 260 259 258 258 257 258 259 258 257 257 258 259 259 258 258 257 257 258
261 260 261 262 262 262 262 262 262 262 262 263 263 264 264 265 266 266 266 266 265 264 263 263 263 261 258 257 258 259 259 259 258 257 258 260 260 259 258 257 257 258
263 263 264 264 265 265 264 264 264 264 264 265 265 266 266 266 267 267 267 267 267 267 266 265 264 263 261 259 259 260 260 259 259 258 259 260 260 259 258 258 258 259
263 263 263 264 265 265 265 265 264 264 265 266 266 267 267 267 267 267 266 267 268 268 269 268 267 266 264 263 262 262 261 261 261 260 261 262 263 262 261 260 259 259
263 263 263 264 265 265 266 266 266 267 267 267 267 268 268 267 267 267 266 266 266 267 267 267 267 267 266 264 264 264 264 264 263 263 263 264 264 264 263 261 260 260
265 265 265 266 266 266 266 267 268 269 269 269 269 269 269 269 268 268 267 267 266 265 265 266 266 267 266 265 265 265 265 266 266 265 265 265 265 265 262 261 261 261
267 267 267 267 267 268 268 268 268 270 271 271 271 271 271 270 270 270 269 268 267 266 266 266 266 267 266 265 265 265 265 266 267 266 265 265 265 264 261 260 260 261
267 267 267 267 267 268 269 269 269 271 272 271 271 272 272 273 273 272 271 269 268 267 266 266 267 267 266 266 266 266 266 267 266 266 265 265 264 263 261 260 260 261
267 267 268 268 267 267 268 269 270 271 271 270 271 272 273 273 273 273 272 270 269 267 266 266 267 267 266 266 266 267 267 267 266 265 265 264 263 263 263 262 262 262
267 268 268 269 269 268 268 269 270 270 270 270 270 271 272 272 272 272 272 271 270 269 267 267 267 268 267 267 267 267 267 266 265 264 264 264 264 264 265 265 265 265
268 269 269 269 269 269 269 269 270 270 270 271 271 271 271 272 271 271 271 271 270 269 269 268 268 269 268 268 267 267 267 266 266 265 264 264 265 265 265 266 266 266
268 269 269 269 268 268 268 269 269 270 271 272 272 272 272 272 272 271 270 270 269 269 269 269 269 269 269 269 268 267 266 266 266 265 265 265 265 265 266 267 267 268